Weather History for Monroe, MI

Change the Weather History Date:

Monday, August 26, 2013

  Actual Average Record
Temperature  
Mean Temperature 78 °F -  
Max Temperature 89 °F 82 °F 98 °F (1948)
Min Temperature 66 °F 60 °F 47 °F (1945)
Cooling Degree Days 12    
Growing Degree Days 28 (Base 50)    
Moisture  
Dew Point 68 °F    
Average Humidity 71    
Maximum Humidity 94    
Minimum Humidity 55    
Precipitation  
Precipitation 0.00 in - - ()
Sea Level Pressure  
Sea Level Pressure 30.08 in    
Wind  
Wind Speed 7 mph (WSW)    
Max Wind Speed 16 mph    
Max Gust Speed 23 mph    
Visibility 10 miles    
Events      
Averages and records for this station are not official NWS values.
T = Trace of Precipitation, MM = Missing Value Source: NWS Daily Summary

Daily Weather History Graph

Daily Weather History Graph

Search for Another Location

Airport:

Trip Planner

Search our weather history database for the weather conditions in past years. The results will help you decide how hot, cold, wet, or windy it might be!

Date:

Astronomy

Aug. 26, 2013 Rise Set
Actual Time 6:53 AM EDT 8:16 PM EDT
Civil Twilight 6:24 AM EDT 8:45 PM EDT
Nautical Twilight 5:49 AM EDT 9:20 PM EDT
Astronomical Twilight 5:12 AM EDT 9:57 PM EDT
Moon 11:19 PM EDT (8/26) 1:00 PM EDT (8/26)
Length of Visible Light 14h 21m
Length of Day
13h 23m
Waning Gibbous, 67% of the Moon is Illuminated
Aug 26
Waning Gibbous
Aug 28
Last Quarter
Sep 5
New
Sep 12
First Quarter
Sep 19
Full

Hourly Weather History & Observations

Time (EDT) Temp. Heat Index Dew Point Humidity Pressure Visibility Wind Dir Wind Speed Gust Speed Precip Events Conditions
12:13 AM 73.4 °F - 64.4 °F 73% 30.18 in 10.0 mi WSW 8.1 mph - N/A   Clear
12:33 AM 73.4 °F - 64.4 °F 73% 30.17 in 10.0 mi SW 4.6 mph - N/A   Clear
12:53 AM 73.4 °F - 64.4 °F 73% 30.17 in 10.0 mi SW 4.6 mph - N/A   Clear
1:13 AM 71.6 °F - 64.4 °F 78% 30.17 in 10.0 mi WSW 3.5 mph - N/A   Clear
1:34 AM 71.6 °F - 64.4 °F 78% 30.17 in 10.0 mi SW 4.6 mph - N/A   Clear
1:54 AM 71.6 °F - 64.4 °F 78% 30.16 in 10.0 mi SW 3.5 mph - N/A   Clear
2:14 AM 71.6 °F - 64.4 °F 78% 30.15 in 10.0 mi SW 4.6 mph - N/A   Clear
2:34 AM 71.6 °F - 64.4 °F 78% 30.14 in 10.0 mi WSW 4.6 mph - N/A   Clear
2:56 AM 71.6 °F - 64.4 °F 78% 30.14 in 10.0 mi WSW 5.8 mph - N/A   Clear
3:16 AM 71.6 °F - 64.4 °F 78% 30.13 in 10.0 mi SW 5.8 mph - N/A   Clear
3:36 AM 71.6 °F - 64.4 °F 78% 30.13 in 10.0 mi WSW 5.8 mph - N/A   Clear
3:57 AM 71.6 °F - 64.4 °F 78% 30.14 in 10.0 mi WSW 5.8 mph - N/A   Clear
4:12 AM 71.6 °F - 64.4 °F 78% 30.14 in 10.0 mi WSW 5.8 mph - N/A   Clear
4:32 AM 69.8 °F - 64.4 °F 83% 30.14 in 10.0 mi WSW 6.9 mph - N/A   Clear
4:52 AM 69.8 °F - 64.4 °F 83% 30.14 in 10.0 mi WSW 6.9 mph - N/A   Clear
5:12 AM 69.8 °F - 64.4 °F 83% 30.14 in 10.0 mi SW 6.9 mph - N/A   Clear
5:32 AM 69.8 °F - 62.6 °F 78% 30.14 in 10.0 mi WSW 5.8 mph - N/A   Clear
5:52 AM 66.2 °F - 62.6 °F 88% 30.14 in 10.0 mi WSW 3.5 mph - N/A   Clear
6:12 AM 66.2 °F - 62.6 °F 88% 30.14 in 10.0 mi WSW 4.6 mph - N/A   Clear
6:32 AM 66.2 °F - 64.4 °F 94% 30.14 in 10.0 mi SW 5.8 mph - N/A   Clear
6:53 AM 66.2 °F - 62.6 °F 88% 30.16 in 10.0 mi WSW 3.5 mph - N/A   Clear
7:13 AM 66.2 °F - 62.6 °F 88% 30.16 in 10.0 mi WSW 3.5 mph - N/A   Clear
7:33 AM 66.2 °F - 64.4 °F 94% 30.16 in 10.0 mi WSW 5.8 mph - N/A   Clear
7:53 AM 68.0 °F - 64.4 °F 88% 30.16 in 10.0 mi WSW 5.8 mph - N/A   Clear
8:13 AM 69.8 °F - 64.4 °F 83% 30.16 in 10.0 mi WSW 8.1 mph - N/A   Clear
8:33 AM 71.6 °F - 64.4 °F 78% 30.15 in 10.0 mi SW 6.9 mph - N/A   Clear
8:53 AM 73.4 °F - 64.4 °F 73% 30.14 in 10.0 mi WSW 8.1 mph - N/A   Clear
9:13 AM 75.2 °F - 64.4 °F 69% 30.14 in 10.0 mi WSW 6.9 mph - N/A   Clear
9:33 AM 75.2 °F - 66.2 °F 73% 30.13 in 10.0 mi WSW 8.1 mph - N/A   Clear
9:53 AM 77.0 °F - 66.2 °F 69% 30.13 in 10.0 mi WSW 9.2 mph - N/A   Clear
10:14 AM 78.8 °F - 66.2 °F 65% 30.14 in 10.0 mi West 12.7 mph - N/A   Clear
10:35 AM 78.8 °F - 66.2 °F 65% 30.15 in 10.0 mi West 9.2 mph - N/A   Clear
10:55 AM 78.8 °F - 66.2 °F 65% 30.14 in 10.0 mi WSW 9.2 mph - N/A   Clear
11:15 AM 80.6 °F 82.7 °F 66.2 °F 61% 30.13 in 10.0 mi West 10.4 mph - N/A   Clear
11:35 AM 82.4 °F 85.4 °F 68.0 °F 62% 30.12 in 10.0 mi WSW 9.2 mph - N/A   Clear
11:55 AM 82.4 °F 85.4 °F 68.0 °F 62% 30.11 in 10.0 mi West 11.5 mph 16.1 mph N/A   Clear
12:15 PM 82.4 °F 85.4 °F 68.0 °F 62% 30.11 in 10.0 mi West 9.2 mph - N/A   Clear
12:35 PM 82.4 °F 86.3 °F 69.8 °F 66% 30.11 in 10.0 mi WSW 8.1 mph - N/A   Clear
12:55 PM 82.4 °F 87.2 °F 71.6 °F 70% 30.09 in 10.0 mi WSW 9.2 mph - N/A   Clear
1:16 PM 84.2 °F 89.6 °F 71.6 °F 66% 30.09 in 10.0 mi WSW 10.4 mph - N/A   Clear
1:36 PM 84.2 °F 88.4 °F 69.8 °F 62% 30.08 in 10.0 mi WSW 10.4 mph - N/A   Clear
1:56 PM 86.0 °F 91.8 °F 71.6 °F 62% 30.06 in 10.0 mi WSW 8.1 mph - N/A   Clear
2:16 PM 87.8 °F 93.8 °F 71.6 °F 58% 30.05 in 10.0 mi West 9.2 mph - N/A   Clear
2:36 PM 87.8 °F 92.6 °F 69.8 °F 55% 30.04 in 10.0 mi WSW 11.5 mph - N/A   Clear
2:56 PM 87.8 °F 92.6 °F 69.8 °F 55% 30.03 in 10.0 mi WSW 16.1 mph - N/A   Clear
3:16 PM 87.8 °F 93.8 °F 71.6 °F 58% 30.02 in 10.0 mi WSW 12.7 mph 21.9 mph N/A   Clear
3:36 PM 89.6 °F 96.2 °F 71.6 °F 55% 30.02 in 10.0 mi West 11.5 mph 23.0 mph N/A   Clear
3:56 PM 89.6 °F 96.2 °F 71.6 °F 55% 30.01 in 10.0 mi West 13.8 mph 21.9 mph N/A   Clear
4:16 PM 87.8 °F 93.8 °F 71.6 °F 58% 30.00 in 10.0 mi West 13.8 mph 20.7 mph N/A   Clear
4:32 PM 87.8 °F 93.8 °F 71.6 °F 58% 30.00 in 10.0 mi WSW 11.5 mph 17.3 mph N/A   Clear
4:52 PM 87.8 °F 93.8 °F 71.6 °F 58% 30.00 in 10.0 mi WSW 12.7 mph - N/A   Clear
5:12 PM 87.8 °F 93.8 °F 71.6 °F 58% 30.00 in 10.0 mi WSW 8.1 mph - N/A   Scattered Clouds
5:32 PM 87.8 °F 93.8 °F 71.6 °F 58% 29.99 in 10.0 mi WSW 10.4 mph - N/A   Scattered Clouds
5:52 PM 87.8 °F 93.8 °F 71.6 °F 58% 29.99 in 10.0 mi WSW 10.4 mph - N/A   Scattered Clouds
6:12 PM 87.8 °F 93.8 °F 71.6 °F 58% 30.00 in 10.0 mi WSW 11.5 mph 16.1 mph N/A   Scattered Clouds
6:32 PM 87.8 °F 93.8 °F 71.6 °F 58% 30.00 in 10.0 mi West 6.9 mph - N/A   Scattered Clouds
6:52 PM 86.0 °F 91.8 °F 71.6 °F 62% 30.00 in 10.0 mi WSW 10.4 mph - N/A   Clear
7:12 PM 84.2 °F 89.6 °F 71.6 °F 66% 30.00 in 10.0 mi WSW 9.2 mph - N/A   Clear
7:32 PM 84.2 °F 90.9 °F 73.4 °F 70% 29.99 in 10.0 mi WSW 8.1 mph - N/A   Scattered Clouds
7:53 PM 84.2 °F 89.6 °F 71.6 °F 66% 29.99 in 10.0 mi West 6.9 mph - N/A   Clear
8:13 PM 82.4 °F 87.2 °F 71.6 °F 70% 29.99 in 10.0 mi WSW 10.4 mph - N/A   Scattered Clouds
8:33 PM 82.4 °F 87.2 °F 71.6 °F 70% 29.99 in 10.0 mi WSW 5.8 mph - N/A   Scattered Clouds
8:53 PM 80.6 °F 84.6 °F 71.6 °F 74% 30.00 in 10.0 mi WSW 6.9 mph - N/A   Clear
9:13 PM 80.6 °F 84.6 °F 71.6 °F 74% 30.00 in 10.0 mi WSW 4.6 mph - N/A   Scattered Clouds
9:33 PM 80.6 °F 84.6 °F 71.6 °F 74% 30.00 in 10.0 mi WSW 6.9 mph - N/A   Scattered Clouds
9:53 PM 80.6 °F 84.6 °F 71.6 °F 74% 30.00 in 10.0 mi WSW 3.5 mph - N/A   Scattered Clouds
10:13 PM 78.8 °F - 71.6 °F 78% 30.00 in 10.0 mi WSW 5.8 mph - N/A   Mostly Cloudy
10:33 PM 78.8 °F - 71.6 °F 78% 30.00 in 10.0 mi WSW 5.8 mph - N/A   Mostly Cloudy
10:54 PM 80.6 °F 84.6 °F 71.6 °F 74% 30.00 in 10.0 mi WSW 4.6 mph - N/A   Mostly Cloudy
11:14 PM 78.8 °F - 71.6 °F 78% 30.00 in 10.0 mi WSW 3.5 mph - N/A   Mostly Cloudy
11:34 PM 78.8 °F - 71.6 °F 78% 30.00 in 10.0 mi West 3.5 mph - N/A   Overcast
11:54 PM 78.8 °F - 71.6 °F 78% 30.00 in 10.0 mi Calm Calm - N/A   Overcast